If you wish to contribute or participate in the discussions about articles you are invited to join SKYbrary as a registered user

 Actions

Bandar Lengeh Airport

From SKYbrary Wiki

OIBL
Airport
ICAO: OIBL – IATA: BDH
Summary
Name Bandar Lengeh Airport
Region Middle East
Territory Iran IR.gif
Location Sadaf, Bandar Lengeh
Serving Bandar Lengeh
Elevation 20.422 m
67 ft20.422 m
Coordinates 26° 31' 52.64" N, 54° 49' 39.91" E
Runways
Designator Length Width Surface ROPS
8/26 2500 m8,202.1 ft
45 m147.638 ft
ASP /


METAR
Observation OIBL 151600Z 27008KT 8000 NSC 32/25 Q0997
Station Bandar Lengeh
Date/Time 15 June 2019 16:00:00
Wind direction 270°
Wind speed 08 kts
Lowest cloud amount nil significant cloud
Temperature 32°C
Dew point 25°C
Humidity 66%
QNH 997 hPa
Weather condition n/a

Airport 6km3.24 nm
6,000 m
19,685.039 ft
southwest of Bandar Length, Iran.

Climatology

Hot Desert climate (Köppen climate classification BWh).

Maps

Terrain

Loading map...

Airport Layout

Loading map...


Accidents & Serious Incidents at or in vicinity of OIBL

None on SKYbrary